Simultaneous Nadir Overpasses (SNOs) Predictions

Prediction of SNOs between AQUA and NOAA-19 Satellite Orbit:

Table of predicted SNOs for the next 14.0 days since TLE Epoch: 3/27/2020
Index Date (AQUA) Time (AQUA) Lat,Lon (AQUA) SZA (AQUA ) Date (NOAA-19) Time (NOAA-19) Lat,Lon (NOAA-19) SZA (NOAA-19 ) Distance(km) Time Diff (sec)
1 03/29/2020 04:07:22 -79.91, -91.65 102.22 03/29/2020 04:06:54 -79.91, -91.52 102.22 2.70 28
2 03/29/2020 04:56:49 79.91, 76.02 77.77 03/29/2020 04:57:51 79.92, 75.90 77.77 2.61 62
3 03/31/2020 09:41:06 79.88, 5.15 76.86 03/31/2020 09:40:11 79.91, 5.25 76.90 3.39 55
4 03/31/2020 10:30:33 -79.92, 172.50 103.10 03/31/2020 10:31:14 -79.90, 172.38 103.12 3.28 41
5 04/02/2020 15:14:49 -79.86, 101.89 104.04 04/02/2020 15:13:38 -79.77, 100.36 103.95 31.62 71
6 04/02/2020 16:04:17 79.89, -90.72 76.00 04/02/2020 16:04:31 79.91, -90.70 76.00 2.08 14
7 04/04/2020 21:38:00 -79.91, 5.71 104.85 04/04/2020 21:37:52 -79.89, 5.75 104.86 2.61 8
8 04/07/2020 03:11:44 79.89, 102.45 74.27 04/07/2020 03:11:11 79.88, 102.38 74.28 2.04 33
9 04/07/2020 04:01:10 -79.89, -89.91 105.74 04/07/2020 04:02:11 -79.90, -90.07 105.74 3.35 61
10 04/09/2020 08:45:27 -79.87,-160.87 106.60 04/09/2020 08:44:31 -79.87,-160.91 106.57 0.95 56




NCC Satellite Simultaneous Nadir Overpasses (SNOs) Prediction Service
